Flag for Canada Weather past 2 weeks in Red Deer, Alberta, Canada

Now
84 °F

Partly sunny.


Feels Like: 87 °F
Forecast: 54 / 86 °F
Wind: 5 mph from Southeast

Location: Red Deer

Current Time: Jul 30, 2014 at 4:36:39 PM

Latest Report: Jul 30, 2014 at 4:00 PM


Visibility: 12 mi

Pressure: 30.05 "Hg

Humidity: 55%

Dew point: 66 °F

Location of Red DeerLocation

Historic Weather in Red Deer — Graph

°F

Red Deer temperature yesterday

Maximum temperature yesterday: 84 °F (at 4:00 PM)
Minimum temperature yesterday: 54 °F (at 6:00 AM)
Average temperature yesterday: 68 °F

Past Weeks' High & Low Weather Summary

 TemperatureHumidityPressure
High84 °F (Jul 29, 4:00 PM)100% (Jul 16, 6:00 AM)30.27 "Hg (Jul 16, 6:00 AM)
Low46 °F (Jul 27, 3:00 AM)29% (Jul 24, 3:00 PM)29.55 "Hg (Jul 19, 6:00 AM)
Average62 °F77%29.94 "Hg
* Reported Jul 15 3:00 PM — Jul 30 3:00 PM, Red Deer, Weather by CustomWeather, © 2014

Note: Actual official high and low records may vary slightly from our data, if they occured in-between our weather recording intervals... More about our weather records

Advertising

Red Deer weather history for previous 24 hours

 ConditionsComfort  
Time TempWeatherWind HumidityBarometerVisibility
3:00 PM
Jul 30
84 °FScattered clouds.2 mph51%30.05 "Hg15 mi
2:00 PM84 °FPassing clouds.3 mph48%30.05 "Hg15 mi
1:00 PM81 °FPassing clouds.No wind45%30.05 "Hg15 mi
12:00 PM79 °FPassing clouds.2 mph58%30.06 "Hg15 mi
11:00 AM75 °FPassing clouds.No wind65%30.06 "Hg15 mi
10:00 AM72 °FPassing clouds.3 mph73%30.07 "Hg15 mi
9:00 AM68 °FScattered clouds.5 mph83%30.07 "Hg12 mi
8:00 AM63 °FScattered clouds.2 mph94%30.07 "Hg12 mi
7:00 AM59 °FScattered clouds.2 mph94%30.06 "Hg15 mi
6:00 AM59 °FPassing clouds.7 mph94%30.07 "Hg15 mi
5:00 AM55 °FFog.2 mph94%30.07 "Hg10 mi
4:00 AM55 °FFog.5 mph100%30.06 "Hg0 mi
3:00 AM59 °FFog.2 mph100%30.06 "Hg1 mi
2:52 AM61 °FFog.2 mph100%30.07 "Hg0 mi
2:00 AM63 °FPassing clouds.No wind94%30.08 "Hg15 mi
1:00 AM63 °FPassing clouds.7 mph100%30.09 "Hg15 mi
12:00 AM63 °FPassing clouds.6 mph94%30.09 "Hg15 mi
11:00 PM
Jul 29
64 °FPassing clouds.5 mph94%30.09 "Hg15 mi
10:00 PM68 °FPartly sunny.3 mph88%30.08 "Hg12 mi
9:00 PM73 °FBroken clouds.5 mph83%30.08 "Hg12 mi
8:00 PM77 °FBroken clouds.6 mph74%30.08 "Hg15 mi
7:00 PM79 °FPartly sunny.8 mph65%30.09 "Hg15 mi
6:00 PM79 °FBroken clouds.6 mph65%30.10 "Hg15 mi
5:00 PM82 °FPartly sunny.6 mph55%30.10 "Hg15 mi
4:00 PM84 °FScattered clouds.6 mph51%30.10 "Hg15 mi
Weather by CustomWeather, © 2014

See weather overviewHow to use our weather pages